Hourly Weather Kozlowko

Today, 22 October, Thursday

Time Temperature Precipitation Wind Pressure Humidity
00:00 +10°C° 0 mm 6 mps 747 mmHg 69%
01:00 +10°C° 0 mm 6 mps 747 mmHg 67%
02:00 +10°C° 0 mm 6 mps 747 mmHg 67%
03:00 +10°C° 0 mm 6 mps 747 mmHg 68%
04:00 +10°C° 0 mm 6 mps 747 mmHg 68%
05:00 +11°C° 0 mm 6 mps 747 mmHg 69%
06:00 +11°C° 0 mm 6 mps 748 mmHg 69%
07:00 +11°C° 0 mm 7 mps 748 mmHg 69%
08:00 +12°C° 0 mm 7 mps 749 mmHg 68%
09:00 +15°C° 0 mm 7 mps 749 mmHg 66%
10:00 +16°C° 0 mm 8 mps 749 mmHg 65%
11:00 +16°C° 0 mm 7 mps 750 mmHg 64%
12:00 +17°C° 0 mm 7 mps 750 mmHg 64%
13:00 +17°C° 0 mm 7 mps 750 mmHg 63%
14:00 +17°C° 0 mm 6 mps 750 mmHg 66%
15:00 +16°C° 0 mm 5 mps 749 mmHg 70%
16:00 +17°C° 0 mm 4 mps 749 mmHg 73%
17:00 +15°C° 0 mm 4 mps 749 mmHg 75%
18:00 +14°C° 0 mm 4 mps 750 mmHg 77%
19:00 +14°C° 0 mm 4 mps 750 mmHg 79%
20:00 +13°C° 0 mm 4 mps 750 mmHg 80%
21:00 +13°C° 0 mm 4 mps 749 mmHg 80%
22:00 +13°C° 0 mm 4 mps 749 mmHg 81%
23:00 +13°C° 0 mm 4 mps 749 mmHg 81%

Tomorrow, 23 October, Friday

Time Temperature Precipitation Wind Pressure Humidity
00:00 +13°C° 0 mm 4 mps 749 mmHg 80%
01:00 +13°C° 0 mm 5 mps 749 mmHg 79%
02:00 +13°C° 0 mm 5 mps 749 mmHg 80%
03:00 +13°C° 0 mm 5 mps 748 mmHg 80%
04:00 +13°C° 0 mm 5 mps 748 mmHg 80%
05:00 +13°C° 0.1 mm 5 mps 748 mmHg 83%
06:00 +13°C° 0.1 mm 5 mps 748 mmHg 86%
07:00 +13°C° 0.1 mm 5 mps 748 mmHg 89%
08:00 +14°C° 0 mm 5 mps 748 mmHg 86%
09:00 +15°C° 0 mm 5 mps 748 mmHg 83%
10:00 +15°C° 0 mm 5 mps 749 mmHg 80%
11:00 +17°C° 0 mm 4 mps 748 mmHg 77%
12:00 +17°C° 0 mm 4 mps 748 mmHg 75%
13:00 +18°C° 0 mm 3 mps 748 mmHg 73%
14:00 +17°C° 0 mm 3 mps 748 mmHg 75%
15:00 +16°C° 0 mm 2 mps 748 mmHg 78%
16:00 +16°C° 0 mm 1 mps 748 mmHg 81%
17:00 +15°C° 0 mm 2 mps 748 mmHg 83%
18:00 +15°C° 0 mm 2 mps 748 mmHg 86%
19:00 +14°C° 0 mm 2 mps 747 mmHg 89%
20:00 +14°C° 0.6 mm 2 mps 747 mmHg 91%
21:00 +14°C° 0.6 mm 2 mps 747 mmHg 92%
22:00 +14°C° 0.6 mm 2 mps 747 mmHg 94%
23:00 +14°C° 1.9 mm 2 mps 747 mmHg 95%

Day after tomorrow, 24 October, Saturday

Time Temperature Precipitation Wind Pressure Humidity
00:00 +13°C° 1.9 mm 3 mps 747 mmHg 96%
01:00 +13°C° 1.9 mm 3 mps 746 mmHg 97%
02:00 +13°C° 1.8 mm 3 mps 746 mmHg 95%
03:00 +12°C° 1.8 mm 4 mps 746 mmHg 93%
04:00 +12°C° 1.8 mm 4 mps 746 mmHg 90%
05:00 +12°C° 0.1 mm 4 mps 746 mmHg 91%
06:00 +11°C° 0.1 mm 3 mps 746 mmHg 92%
07:00 +12°C° 0.1 mm 2 mps 747 mmHg 93%
08:00 +12°C° 0 mm 3 mps 747 mmHg 88%
09:00 +13°C° 0 mm 5 mps 748 mmHg 83%
10:00 +14°C° 0 mm 6 mps 748 mmHg 78%
11:00 +15°C° 0 mm 6 mps 749 mmHg 75%
12:00 +15°C° 0 mm 6 mps 749 mmHg 72%
13:00 +16°C° 0 mm 7 mps 749 mmHg 68%
14:00 +15°C° 0 mm 6 mps 750 mmHg 71%
15:00 +14°C° 0 mm 5 mps 750 mmHg 74%
16:00 +13°C° 0 mm 5 mps 750 mmHg 77%
17:00 +13°C° 0 mm 4 mps 750 mmHg 78%
18:00 +12°C° 0 mm 3 mps 751 mmHg 79%
19:00 +13°C° 0 mm 2 mps 751 mmHg 79%
20:00 +13°C° 0 mm 2 mps 751 mmHg 81%
21:00 +12°C° 0 mm 3 mps 752 mmHg 82%
22:00 +11°C° 0 mm 3 mps 752 mmHg 84%
23:00 +11°C° 0 mm 3 mps 752 mmHg 86%

, 25 October, Sunday

Time Temperature Precipitation Wind Pressure Humidity
00:00 +10°C° 0 mm 3 mps 752 mmHg 89%
01:00 +10°C° 0 mm 2 mps 752 mmHg 92%
02:00 +10°C° 0 mm 3 mps 752 mmHg 91%
03:00 +10°C° 0 mm 3 mps 752 mmHg 91%
04:00 +10°C° 0 mm 3 mps 752 mmHg 91%
05:00 +9°C° 0 mm 2 mps 752 mmHg 91%
06:00 +9°C° 0 mm 2 mps 751 mmHg 92%
07:00 +9°C° 0 mm 2 mps 751 mmHg 93%
08:00 +10°C° 0 mm 3 mps 752 mmHg 87%
09:00 +11°C° 0 mm 3 mps 752 mmHg 81%
10:00 +13°C° 0 mm 3 mps 752 mmHg 75%
11:00 +13°C° 0 mm 3 mps 751 mmHg 72%
12:00 +14°C° 0 mm 3 mps 751 mmHg 69%
13:00 +16°C° 0 mm 3 mps 751 mmHg 65%
14:00 +16°C° 0 mm 3 mps 751 mmHg 68%
15:00 +14°C° 0 mm 3 mps 750 mmHg 71%
16:00 +14°C° 0 mm 2 mps 750 mmHg 74%
17:00 +13°C° 0 mm 3 mps 750 mmHg 78%
18:00 +12°C° 0 mm 3 mps 750 mmHg 81%
19:00 +11°C° 0 mm 3 mps 750 mmHg 84%
20:00 +11°C° 0 mm 3 mps 750 mmHg 85%
21:00 +11°C° 0 mm 3 mps 749 mmHg 86%
22:00 +10°C° 0 mm 4 mps 749 mmHg 86%
23:00 +10°C° 0 mm 4 mps 749 mmHg 87%

25 October, Sunday

Time Temperature Precipitation Wind Pressure Humidity
00:00 +10°C° 0 mm 3 mps 752 mmHg 89%
01:00 +10°C° 0 mm 2 mps 752 mmHg 92%
02:00 +10°C° 0 mm 3 mps 752 mmHg 91%
03:00 +10°C° 0 mm 3 mps 752 mmHg 91%
04:00 +10°C° 0 mm 3 mps 752 mmHg 91%
05:00 +9°C° 0 mm 2 mps 752 mmHg 91%
06:00 +9°C° 0 mm 2 mps 751 mmHg 92%
07:00 +9°C° 0 mm 2 mps 751 mmHg 93%
08:00 +10°C° 0 mm 3 mps 752 mmHg 87%
09:00 +11°C° 0 mm 3 mps 752 mmHg 81%
10:00 +13°C° 0 mm 3 mps 752 mmHg 75%
11:00 +13°C° 0 mm 3 mps 751 mmHg 72%
12:00 +14°C° 0 mm 3 mps 751 mmHg 69%
13:00 +16°C° 0 mm 3 mps 751 mmHg 65%
14:00 +16°C° 0 mm 3 mps 751 mmHg 68%
15:00 +14°C° 0 mm 3 mps 750 mmHg 71%
16:00 +14°C° 0 mm 2 mps 750 mmHg 74%
17:00 +13°C° 0 mm 3 mps 750 mmHg 78%
18:00 +12°C° 0 mm 3 mps 750 mmHg 81%
19:00 +11°C° 0 mm 3 mps 750 mmHg 84%
20:00 +11°C° 0 mm 3 mps 750 mmHg 85%
21:00 +11°C° 0 mm 3 mps 749 mmHg 86%
22:00 +10°C° 0 mm 4 mps 749 mmHg 86%
23:00 +10°C° 0 mm 4 mps 749 mmHg 87%

26 October, Monday

Time Temperature Precipitation Wind Pressure Humidity
00:00 +10°C° 0 mm 4 mps 749 mmHg 87%
01:00 +10°C° 0 mm 3 mps 749 mmHg 88%
02:00 +9°C° 0 mm 3 mps 748 mmHg 89%
03:00 +9°C° 0 mm 3 mps 748 mmHg 90%
04:00 +9°C° 0 mm 3 mps 748 mmHg 91%
05:00 +8°C° 0 mm 4 mps 748 mmHg 91%
06:00 +8°C° 0 mm 4 mps 748 mmHg 92%
07:00 +8°C° 0 mm 4 mps 747 mmHg 92%
08:00 +10°C° 0 mm 4 mps 747 mmHg 87%
09:00 +11°C° 0 mm 4 mps 747 mmHg 82%
10:00 +12°C° 0 mm 4 mps 747 mmHg 77%
11:00 +13°C° 0 mm 4 mps 746 mmHg 74%
12:00 +14°C° 0 mm 4 mps 746 mmHg 71%
13:00 +15°C° 0 mm 4 mps 746 mmHg 69%
14:00 +14°C° 0 mm 4 mps 746 mmHg 72%
15:00 +14°C° 0 mm 3 mps 745 mmHg 75%
16:00 +13°C° 0 mm 3 mps 745 mmHg 79%
17:00 +13°C° 0 mm 3 mps 745 mmHg 80%
18:00 +12°C° 0 mm 3 mps 745 mmHg 82%
19:00 +12°C° 0 mm 3 mps 745 mmHg 84%
20:00 +12°C° 0 mm 3 mps 745 mmHg 85%
21:00 +13°C° 0 mm 2 mps 745 mmHg 87%
22:00 +13°C° 0 mm 2 mps 745 mmHg 88%
23:00 +13°C° 0 mm 2 mps 745 mmHg 88%

27 October, Tuesday

Time Temperature Precipitation Wind Pressure Humidity
00:00 +12°C° 0 mm 2 mps 745 mmHg 88%
01:00 +12°C° 0 mm 2 mps 745 mmHg 88%
02:00 +12°C° 0 mm 2 mps 745 mmHg 87%
03:00 +11°C° 0 mm 3 mps 745 mmHg 86%
04:00 +11°C° 0 mm 3 mps 745 mmHg 86%
05:00 +11°C° 0 mm 3 mps 745 mmHg 87%
06:00 +10°C° 0 mm 3 mps 746 mmHg 88%
07:00 +10°C° 0 mm 2 mps 746 mmHg 90%
08:00 +12°C° 0 mm 2 mps 746 mmHg 87%
09:00 +13°C° 0 mm 2 mps 747 mmHg 84%
10:00 +14°C° 0 mm 2 mps 747 mmHg 81%
11:00 +15°C° 0 mm 2 mps 747 mmHg 77%
12:00 +16°C° 0 mm 3 mps 747 mmHg 74%
13:00 +16°C° 0 mm 3 mps 748 mmHg 70%
14:00 +16°C° 0 mm 2 mps 748 mmHg 72%
15:00 +15°C° 0 mm 2 mps 748 mmHg 74%
16:00 +15°C° 0 mm 2 mps 748 mmHg 76%
17:00 +14°C° 0 mm 2 mps 748 mmHg 78%
18:00 +13°C° 0 mm 1 mps 749 mmHg 79%
19:00 +13°C° 0 mm 1 mps 749 mmHg 81%
20:00 +12°C° 0 mm 1 mps 749 mmHg 82%
21:00 +12°C° 0 mm 1 mps 750 mmHg 83%
22:00 +12°C° 0 mm 1 mps 750 mmHg 84%
23:00 +12°C° 0 mm 1 mps 750 mmHg 85%
Show more